Participated 1 time
in 2025
Pavel Bittner, Czech Republic
Tour de France 2026 starts from Barcelona, Spain in

Stats and Facts from
Tour de France.

2026   2025   2024   2023  2022  2021  2020  2019   2018  2017   2016   2015  2014  2013   2012   2011  2010   2009   2008   2007   2006   2005   2004   2003   2002   2001   2000   1999   1998   1997  1996   1995   1994   1993   1992  1991   1990   1989   1988   1987   1986   1985   1984   1983  1982  1981   1980   1979  1978  1977   1976  1975  1974  1973   1972   1971   1970  1969   1968   1967   1966   1965  1964  1963   1962   1961   1960   1959   1958   1957  1956   1955   1954   1953   1952  1951  1950  1949   1948  1947  1939   1938   1937   1936   1935   1934   1933  1932   1931   1930  1929   1928   1927   1926  1925  1924  1923   1922   1921   1920   1919  1914   1913   1912   1911   1910  1909   1908   1907   1906  1905  1904   1903 

Tourstats
Sitemap

After stage 21 - 2025:
 16451 starters.
  5464 different riders.
  689 teams.
  2398 stages.
  470 restdays.
  466506.50 km.
  5925 abandoned riders.

Click map for 1910 route.
Facts from Tour de France 1910 Additional info and images from 1910.
  |   Stages.  |   Stage winners.  |   Days in jerseys.  |   Teams.  |   All riders.  |   All riders by age.  |   All riders from.  |  

  |   Rookies.  |   Withdrawls.  |   Average speed.  |   GC.  |   Polka  |   Green  |   White  |   Summits. (In tour)  |   Miscellaneous.  |  

Stage 7 on July 15th. 1910
Pick a stage:  1  2  3  4  5  6  7  8  9  10  11  12  13  14  15  

After stage 7:    François Faber  
  NiceNimes | Dist: 345.00km. | Winner: François Faber

Podium

Average speed for all riders in stage:  22,962 km./hr.

1
 François Faber  Alcyon11h 48' 00"=29,237  km/h

2
 Georges Paulmier  Le Globe11h 52' 00"+  00:04:00 =29,073  km/h

3
 Octave Lapize  Alcyon11h 52' 00"+  00:04:00 =29,073  km/h

4  Louis Trousselier  Alcyon11h 52' 00"+  00:04:00 =29,073  km/h

5  Gustave Garrigou  Alcyon11h 52' 00"+  00:04:00 =29,073  km/h

6  Ernesto Azzini  Legnano11h 52' 00"+  00:04:00 =29,073  km/h

7  Marcel Godivier  Alcyon11h 52' 01"+  00:04:01 =29,072  km/h

8  Charles Crupelandt  Le Globe11h 52' 01"+  00:04:01 =29,072  km/h

9  Ernest Paul  Individual11h 52' 01"+  00:04:01 =29,072  km/h

10  Charles Cruchon  Individual11h 52' 01"+  00:04:01 =29,072  km/h

11  Jean-Baptiste Dortignacq  Legnano11h 54' 00"+  00:06:00 =28,992  km/h

12  André Blaise  Alcyon12h 03' 00"+  00:15:00 =28,631  km/h

13  Emile Georget  Legnano12h 15' 00"+  00:27:00 =28,163  km/h

14  Cyrille Van Hauwaert  Alcyon12h 25' 00"+  00:37:00 =27,785  km/h

15  Jules Deloffre  Le Globe12h 25' 00"+  00:37:00 =27,785  km/h

16  Julien Maîtron  Le Globe12h 30' 00"+  00:42:00 =27,600  km/h

17  François  Lafourcade  Individual12h 31' 00"+  00:43:00 =27,563  km/h

18  Pierino Albini  Legnano12h 45' 00"+  00:57:00 =27,059  km/h

19  Aldo Bettini  Alcyon12h 45' 00"+  00:57:00 =27,059  km/h

20  Leon Lannoy  Le Globe12h 50' 00"+  01:02:00 =26,883  km/h

21  Henri Cornet  Le Globe13h 05' 00"+  01:17:00 =26,369  km/h

22  Frédéric Saillot  Le Globe13h 05' 00"+  01:17:00 =26,369  km/h

23  Joseph Leblanc  Individual13h 26' 00"+  01:38:00 =25,682  km/h

24  Georges Fleury  Individual13h 32' 00"+  01:44:00 =25,493  km/h

25  Maurice Pardon  Individual13h 40' 00"+  01:52:00 =25,244  km/h

26  Noel Combelles  Individual13h 46' 00"+  01:58:00 =25,061  km/h

27  Joseph Habierre  Individual13h 50' 00"+  02:02:00 =24,940  km/h

28  Augustin Ringeval  Individual13h 56' 00"+  02:08:00 =24,761  km/h

29  François Riou  Individual13h 58' 00"+  02:10:00 =24,702  km/h

30  Gabriel Mathonat  Individual15h 00' 00"+  03:12:00 =23,000  km/h

31  Albert Baudet  Individual15h 00' 00"+  03:12:00 =23,000  km/h

32  Lucien Roquebert  Individual15h 07' 00"+  03:19:00 =22,822  km/h

33  Giuseppe Azzini  Legnano15h 12' 00"+  03:24:00 =22,697  km/h

34  Maurice Decaup  Legnano15h 30' 00"+  03:42:00 =22,258  km/h

35  Pierre Privat  Individual15h 30' 00"+  03:42:00 =22,258  km/h

36  Lucien Leman  Individual15h 30' 00"+  03:42:00 =22,258  km/h

37  Auguste Guyon  Individual15h 30' 00"+  03:42:00 =22,258  km/h

38  Charles Dumont  Individual15h 30' 00"+  03:42:00 =22,258  km/h

39  Albert Cognat  Individual15h 30' 00"+  03:42:00 =22,258  km/h

40  Lucien Pothier  Individual15h 31' 00"+  03:43:00 =22,234  km/h

41  Constant Menager  Legnano15h 38' 00"+  03:50:00 =22,068  km/h

42  Louis Pennequin  Individual15h 42' 00"+  03:54:00 =21,975  km/h

43  Jean Perrucca  Individual15h 46' 00"+  03:58:00 =21,882  km/h

44  Rene Bartholet  Individual15h 55' 00"+  04:07:00 =21,675  km/h

45  Auguste Dufour  Individual15h 55' 00"+  04:07:00 =21,675  km/h

46  Georges Cauvry  Individual15h 55' 00"+  04:07:00 =21,675  km/h

47  Emile Godard  Individual17h 00' 00"+  05:12:00 =20,294  km/h

48  Robert Chopard  Individual17h 35' 00"+  05:47:00 =19,621  km/h

49  Henri Alavoine  Individual17h 50' 00"+  06:02:00 =19,346  km/h

50  Camille Bière  Individual17h 50' 00"+  06:02:00 =19,346  km/h

51  Jean Bouillet  Individual17h 50' 00"+  06:02:00 =19,346  km/h

52  Louis Jouin  Individual17h 50' 00"+  06:02:00 =19,346  km/h

53  Henri Ory  Individual17h 50' 00"+  06:02:00 =19,346  km/h

54  Eugene Leroy  Individual17h 50' 00"+  06:02:00 =19,346  km/h

55  Emile Besnier  Individual17h 50' 00"+  06:02:00 =19,346  km/h

56  Constant Collet  Individual17h 50' 00"+  06:02:00 =19,346  km/h

57  Francois Picolot  Individual17h 50' 00"+  06:02:00 =19,346  km/h

58  Pietro Ghislotti  Individual17h 50' 00"+  06:02:00 =19,346  km/h

59  Joseph Wiringer  Individual20h 50' 00"+  09:02:00 =16,560  km/h

60  Louis Picard  Individual20h 50' 00"+  09:02:00 =16,560  km/h

61  Antony Wattelier  Individual20h 50' 00"+  09:02:00 =16,560  km/h

62  Paul Amiot  Individual20h 50' 00"+  09:02:00 =16,560  km/h

63  René Chaudé  Individual21h 20' 00"+  09:32:00 =16,172  km/h


Withdrawls: 7
 RiderTeamReason
190   Adolphe Hélière IndividualDid not start
11   Lucien Petit-Breton LegnanoDid not finish
20   Lauro Bordin LegnanoDid not finish
133   Raphael Galiero IndividualDid not finish
146   Eugene Moura IndividualDid not finish
174   Adrien Heloin IndividualDid not finish
203   Jean-Baptiste Camdessoucens IndividualDid not finish
Todays birthdays.

1889 • Adolphe Landon
1890 • Jules Lebreton
1904 • Julien Grujon
1909 • Erich Metze
1926 • Giovanni Rossi
1928 • Serge Blusson
1928 • Alois Vansteenkiste
1931 • André Dupré
1934 • Alfred Rüegg
1962 • Francisco Espinosa
1962 • Paul Kimmage
1963 • Federico Muñoz
1966 • Andrea Tafi
1971 • Emmanuel Magnien
1973 • Paolo Savoldelli
1985 • Mikhail Ignatyev

 

Optimized for Chrome - Edge
and Opera browsers.